Weather Roundup
Issued by NWS

Home | Current Version | Previous Version | Graphics & Text | Print | Product List | Glossary Off
Versions: 1 2 3 4 5 6 7 8 9 10 11 12 13 14 15 16 17 18 19 20 21 22 23 24 25 26 27 28 29 30 31 32 33 34 35 36 37 38 39 40 41 42 43 44 45 46 47 48 49 50

267
NZUS93 KARX 241710
HRRWXR

CURRENT HOURLY OBSERVATIONS ACROSS
MUCH OF THE UPPER MISSISSIPPI VALLEY
NATIONAL WEATHER SERVICE LA CROSSE WI
1200 PM CDT SAT JUN 24 2017


...SOUTHEAST MINNESOTA...


CITY           SKY/WX    TMP DP  RH WIND       PRES   REMARKS
ROCHESTER      SUNNY     63  45  51 W18G26    30.06R
ROCHESTER/MAYO FAIR      62  40  44 W21G28    30.04S
WINONA         MOSUNNY   63  43  48 NW15G25   30.02S
AUSTIN         SUNNY     63  43  48 W14       30.06S
ALBERT LEA     MOSUNNY   64  41  42 NW10G16   30.07S
DODGE CENTER   SUNNY     63  41  45 NW17G25   30.05F
PRESTON        SUNNY     62  44  52 W18       30.06S
OWATONNA       SUNNY     64  43  45 W17G28    30.05F
FARIBAULT      MOSUNNY   64  43  45 W17G24    30.05S
$$

...ELSEWHERE IN MINNESOTA...


CITY           SKY/WX    TMP DP  RH WIND       PRES   REMARKS
MINNEAPOLIS    CLOUDY    64  40  41 W18G26    30.02R
INTNL FALLS    CLOUDY    60  47  61 NW13      29.93R
DULUTH         CLOUDY    57  46  66 NW17G24   29.92R
RED WING       MOSUNNY   66  37  34 W12G18    30.01S
REDWOOD FALLS  MOSUNNY   62  44  51 N7        30.06S
MANKATO        PTSUNNY   62  40  44 W13G22    30.06S
WORTHINGTON    PTSUNNY   66  40  38 W26G38    30.07F
FAIRMONT       SUNNY     66  41  40 NW18      30.08F
$$

...SOUTHWEST WISCONSIN...


CITY           SKY/WX    TMP DP  RH WIND       PRES   REMARKS
LA CROSSE      PTSUNNY   69  45  41 NW14      30.01R
PRAIRIE DU CHI SUNNY     67  40  37 W17G24    30.04R
BOSCOBEL       PTSUNNY   66  46  48 W10G21    30.03R
LONE ROCK      PTSUNNY   67  50  54 W16       30.00R
PLATTEVILLE    MOSUNNY   68  47  48 W16G25    30.04R
FORT MC COY    PTSUNNY   63  46  54 NW12G18   30.02R
CAMP DOUGLAS   PTSUNNY   61  48  63 W10       29.99R
MAUSTON-NEW LI PTSUNNY   65  49  57 NW12G17   29.98R
VIROQUA        PTSUNNY   63  46  54 W16       30.03R
WIS DELLS      CLOUDY    64  46  51 W10       29.99R
$$

...ELSEWHERE IN WISCONSIN...


CITY           SKY/WX    TMP DP  RH WIND       PRES   REMARKS
MILWAUKEE      MOSUNNY   71  48  43 W17G24    29.95R
MADISON        PTSUNNY   65  46  50 NW13G18   29.98R
GREEN BAY      PTSUNNY   69  56  62 W17G25    29.89R
EAU CLAIRE     PTSUNNY   64  41  42 W16G25    29.98R
BLACK RVR FLS  CLOUDY    65  42  41 W13G20    30.00R
MEDFORD        CLOUDY    59  43  54 W14G22    29.94S
WAUSAU         CLOUDY    60  45  57 W14       29.92R
WIS RAPIDS     PTSUNNY   66  43  43 NW16G22   29.98R
MARSHFIELD     CLOUDY    62  43  49 W17G23    29.96R
RICE LAKE      MOSUNNY   61  44  54 W12G20    29.99S
$$

...NORTHEAST IOWA...


CITY           SKY/WX    TMP DP  RH WIND       PRES   REMARKS
WATERLOO       SUNNY     68  40  35 NW17G23   30.08S
DUBUQUE        MOSUNNY   66  43  43 W16G30    30.06R
DECORAH        SUNNY     64  39  39 NW14G31   30.05S
MASON CITY     SUNNY     66  40  38 NW16G25   30.10S
CHARLES CITY   SUNNY     66  41  39 NW17G24   30.09S
OELWEIN        SUNNY     64  45  48 NW17G26   30.09S
$$

...ELSEWHERE IN IOWA...


CITY           SKY/WX    TMP DP  RH WIND       PRES   REMARKS
DES MOINES     MOSUNNY   72  38  29 NW14      30.16R
IOWA CITY      SUNNY     71  43  36 W18G25    30.12R
FORT DODGE     SUNNY     70  43  37 NW10G17   30.13S
MARSHALLTOWN   SUNNY     69  42  37 NW16      30.12R
CEDAR RAPIDS   SUNNY     69  47  45 NW22      30.10R
$$

...NORTHERN ILLINOIS...


CITY           SKY/WX    TMP DP  RH WIND       PRES   REMARKS
CHICAGO-OHARE  PTSUNNY   73  50  44 W16       29.98R
CHICAGO-MIDWAY PTSUNNY   72  50  45 W14G21    29.99R
MOLINE         SUNNY     71  43  36 W20G26    30.09R
ROCKFORD       PTSUNNY   70  47  43 NW20G26   30.02R
PEORIA         MOSUNNY   72  47  40 W12       30.09R
$$

NOTE: "FAIR" INDICATES FEW OR NO CLOUDS BELOW 12,000 FEET WITH NO
SIGNIFICANT WEATHER AND/OR OBSTRUCTIONS TO VISIBILITY. WIND
SPEEDS ARE IN MILES-PER-HOUR.




USA.gov is the U.S. government's official web portal to all federal, state and local government web resources and services.